| time (UTC) | temp C | wind direction | speed KPH | gust KPH | rain 1hr cm | rain 24hr cm | rain mn cm | humidity % | barometer mb |
| 20260505060106 | 21 | 159 | 4.8 | 17.7 | 0.00 | 0.00 | 0.00 | 86 | 1011.2 |
| 20260505055600 | 21 | 169 | 3.2 | 17.7 | 0.00 | 0.00 | 0.00 | 86 | 1011.3 |
| 20260505054822 | 21 | 217 | 4.8 | 14.5 | 0.00 | 0.00 | 0.00 | 86 | 1011.3 |
| 20260505054317 | 21 | 222 | 4.8 | 14.5 | 0.00 | 0.00 | 0.00 | 86 | 1011.4 |
| 20260505053812 | 21 | 205 | 4.8 | 11.3 | 0.00 | 0.00 | 0.00 | 86 | 1011.5 |
| 20260505053304 | 21 | 159 | 4.8 | 20.9 | 0.00 | 0.00 | 0.00 | 86 | 1011.4 |
| 20260505052758 | 21 | 175 | 4.8 | 20.9 | 0.00 | 0.00 | 0.00 | 86 | 1011.3 |
| 20260505052252 | 21 | 202 | 4.8 | 12.9 | 0.00 | 0.00 | 0.00 | 86 | 1011.4 |
| 20260505051746 | 21 | 159 | 3.2 | 14.5 | 0.00 | 0.00 | 0.00 | 86 | 1011.2 |
| 20260505051239 | 21 | 169 | 3.2 | 14.5 | 0.00 | 0.00 | 0.00 | 85 | 1011.2 |
| 20260505050733 | 21 | 119 | 4.8 | 16.1 | 0.00 | 0.00 | 0.00 | 85 | 1011.3 |
| 20260505050458 | 21 | 189 | 4.8 | 16.1 | 0.00 | 0.00 | 0.00 | 85 | 1011.3 |
| 20260505041718 | 22 | 222 | 3.2 | 9.7 | 0.00 | 0.00 | 0.00 | 82 | 1011.3 |
| 20260505041216 | 22 | 175 | 3.2 | 12.9 | 0.00 | 0.00 | 0.00 | 82 | 1011.3 |
| 20260505040713 | 22 | 195 | 3.2 | 12.9 | 0.00 | 0.00 | 0.00 | 81 | 1011.3 |
| 20260505040213 | 22 | 163 | 3.2 | 12.9 | 0.00 | 0.00 | 0.00 | 81 | 1011.2 |
| 20260505035945 | 22 | 196 | 3.2 | 12.9 | 0.00 | 0.00 | 0.00 | 81 | 1011.2 |
| 20260505035213 | 22 | 213 | 3.2 | 11.3 | 0.00 | 0.00 | 0.00 | 80 | 1011.2 |
| 20260505034714 | 22 | 156 | 3.2 | 19.3 | 0.00 | 0.00 | 0.00 | 79 | 1011.4 |
| 20260505034214 | 22 | 150 | 4.8 | 19.3 | 0.00 | 0.00 | 0.00 | 79 | 1011.2 |
| 20260505033945 | 22 | 150 | 3.2 | 14.5 | 0.00 | 0.00 | 0.00 | 79 | 1011.1 |
| 20260505033212 | 22 | 157 | 3.2 | 14.5 | 0.00 | 0.00 | 0.00 | 78 | 1011.1 |
| 20260505032941 | 22 | 226 | 3.2 | 14.5 | 0.00 | 0.00 | 0.00 | 78 | 1010.9 |
| 20260505032212 | 22 | 150 | 3.2 | 14.5 | 0.00 | 0.00 | 0.00 | 78 | 1011.0 |
| 20260505031706 | 22 | 177 | 3.2 | 12.9 | 0.00 | 0.00 | 0.00 | 77 | 1011.0 |
| 20260505031159 | 22 | 197 | 1.6 | 8.0 | 0.00 | 0.00 | 0.00 | 77 | 1010.9 |
| 20260505030653 | 23 | 200 | 1.6 | 8.0 | 0.00 | 0.00 | 0.00 | 77 | 1010.9 |
| 20260505030147 | 23 | 199 | 1.6 | 8.0 | 0.00 | 0.00 | 0.00 | 76 | 1011.1 |
| 20260505025641 | 23 | 192 | 1.6 | 6.4 | 0.00 | 0.00 | 0.00 | 76 | 1011.0 |
| 20260505025407 | 23 | 192 | 1.6 | 6.4 | 0.00 | 0.00 | 0.00 | 76 | 1011.1 |
| 20260505024629 | 23 | 189 | 1.6 | 6.4 | 0.00 | 0.00 | 0.00 | 75 | 1011.1 |
| 20260505024123 | 23 | 192 | 1.6 | 4.8 | 0.00 | 0.00 | 0.00 | 75 | 1011.0 |
| 20260505023617 | 23 | 192 | 1.6 | 8.0 | 0.00 | 0.00 | 0.00 | 75 | 1011.1 |
| 20260505023112 | 23 | 192 | 1.6 | 8.0 | 0.00 | 0.00 | 0.00 | 75 | 1011.1 |
| 20260505022606 | 23 | 191 | 1.6 | 6.4 | 0.00 | 0.00 | 0.00 | 74 | 1011.0 |
| 20260505022100 | 23 | 191 | 0.0 | 6.4 | 0.00 | 0.00 | 0.00 | 74 | 1010.9 |
| 20260505021553 | 23 | 190 | 0.0 | 6.4 | 0.00 | 0.00 | 0.00 | 74 | 1010.9 |
| 20260505021047 | 23 | 190 | 0.0 | 1.6 | 0.00 | 0.00 | 0.00 | 74 | 1010.9 |
| 20260505020541 | 23 | 190 | 0.0 | 4.8 | 0.00 | 0.00 | 0.00 | 73 | 1010.9 |
| 20260505020036 | 23 | 190 | 1.6 | 6.4 | 0.00 | 0.00 | 0.00 | 73 | 1010.7 |
| 20260505015530 | 23 | 190 | 1.6 | 6.4 | 0.00 | 0.00 | 0.00 | 72 | 1010.6 |
| 20260505015024 | 23 | 190 | 1.6 | 8.0 | 0.00 | 0.00 | 0.00 | 72 | 1010.7 |
| 20260505014517 | 23 | 190 | 1.6 | 8.0 | 0.00 | 0.00 | 0.00 | 72 | 1010.7 |
| 20260505014011 | 24 | 189 | 1.6 | 12.9 | 0.00 | 0.00 | 0.00 | 72 | 1010.6 |
| 20260505013736 | 24 | 187 | 3.2 | 12.9 | 0.00 | 0.00 | 0.00 | 71 | 1010.6 |
| 20260505013231 | 24 | 225 | 3.2 | 8.0 | 0.00 | 0.00 | 0.00 | 71 | 1010.5 |
| 20260505012725 | 24 | 161 | 1.6 | 8.0 | 0.00 | 0.00 | 0.00 | 71 | 1010.6 |
| 20260505012219 | 24 | 157 | 1.6 | 9.7 | 0.00 | 0.00 | 0.00 | 71 | 1010.6 |
| 20260505011714 | 25 | 158 | 3.2 | 9.7 | 0.00 | 0.00 | 0.00 | 70 | 1010.5 |
| 20260505010936 | 25 | 232 | 1.6 | 9.7 | 0.00 | 0.00 | 0.00 | 70 | 1010.5 |
| 20260505010429 | 25 | 192 | 1.6 | 8.0 | 0.00 | 0.00 | 0.00 | 69 | 1010.4 |
| 20260505005923 | 25 | 202 | 3.2 | 16.1 | 0.00 | 0.00 | 0.00 | 69 | 1010.5 |
| 20260505005649 | 25 | 193 | 3.2 | 16.1 | 0.00 | 0.00 | 0.00 | 69 | 1010.6 |
| 20260505004915 | 25 | 204 | 3.2 | 11.3 | 0.00 | 0.00 | 0.00 | 69 | 1010.6 |
| 20260505004415 | 25 | 281 | 3.2 | 11.3 | 0.00 | 0.00 | 0.00 | 68 | 1010.5 |
| 20260505003915 | 25 | 242 | 3.2 | 11.3 | 0.00 | 0.00 | 0.00 | 68 | 1010.4 |
| 20260505003646 | 25 | 223 | 3.2 | 11.3 | 0.00 | 0.00 | 0.00 | 67 | 1010.2 |
| 20260505002915 | 26 | 181 | 3.2 | 12.9 | 0.00 | 0.00 | 0.00 | 67 | 1010.1 |
| 20260505002647 | 26 | 285 | 3.2 | 12.9 | 0.00 | 0.00 | 0.00 | 67 | 1010.1 |
| 20260505001915 | 26 | 212 | 3.2 | 9.7 | 0.00 | 0.00 | 0.00 | 66 | 1010.2 |
| 20260505001415 | 26 | 159 | 3.2 | 12.9 | 0.00 | 0.00 | 0.00 | 66 | 1010.3 |
| 20260505000915 | 26 | 221 | 3.2 | 12.9 | 0.00 | 0.00 | 0.00 | 66 | 1010.3 |
| 20260505000418 | 26 | 161 | 3.2 | 14.5 | 0.00 | 0.00 | 0.00 | 66 | 1010.4 |
| 20260504235913 | 26 | 221 | 4.8 | 19.3 | 0.00 | 0.00 | 0.00 | 66 | 1010.4 |
| 20260504235413 | 26 | 287 | 6.4 | 19.3 | 0.00 | 0.00 | 0.00 | 65 | 1010.4 |
| 20260504234913 | 26 | 108 | 4.8 | 17.7 | 0.00 | 0.00 | 0.00 | 65 | 1010.4 |
| 20260504234643 | 26 | 131 | 4.8 | 11.3 | 0.00 | 0.00 | 0.00 | 66 | 1010.6 |
| 20260504233913 | 26 | 207 | 4.8 | 16.1 | 0.00 | 0.00 | 0.00 | 66 | 1010.6 |
| 20260504233411 | 26 | 158 | 4.8 | 16.1 | 0.00 | 0.00 | 0.00 | 65 | 1010.6 |
| 20260504232911 | 26 | 150 | 4.8 | 14.5 | 0.00 | 0.00 | 0.00 | 65 | 1010.7 |
| 20260504232409 | 26 | 198 | 4.8 | 16.1 | 0.00 | 0.00 | 0.00 | 66 | 1010.8 |
| 20260504232141 | 26 | 184 | 4.8 | 16.1 | 0.00 | 0.00 | 0.00 | 65 | 1010.8 |
| 20260504231643 | 26 | 152 | 4.8 | 16.1 | 0.00 | 0.00 | 0.00 | 66 | 1010.9 |
| 20260504230909 | 26 | 191 | 4.8 | 16.1 | 0.00 | 0.00 | 0.00 | 66 | 1011.0 |
| 20260504230409 | 26 | 163 | 4.8 | 14.5 | 0.00 | 0.00 | 0.00 | 66 | 1011.1 |
| 20260504225908 | 26 | 167 | 6.4 | 16.1 | 0.00 | 0.00 | 0.00 | 66 | 1011.1 |
| 20260504225409 | 26 | 173 | 6.4 | 16.1 | 0.00 | 0.00 | 0.00 | 65 | 1011.2 |
| 20260504224909 | 26 | 170 | 4.8 | 16.1 | 0.00 | 0.00 | 0.00 | 65 | 1011.2 |
| 20260504224409 | 26 | 211 | 3.2 | 12.9 | 0.00 | 0.00 | 0.00 | 65 | 1011.3 |
| 20260504223909 | 26 | 283 | 4.8 | 16.1 | 0.00 | 0.00 | 0.00 | 65 | 1011.5 |
| 20260504223639 | 26 | 192 | 4.8 | 16.1 | 0.00 | 0.00 | 0.00 | 65 | 1011.5 |
| 20260504222909 | 26 | 130 | 4.8 | 12.9 | 0.00 | 0.00 | 0.00 | 65 | 1011.6 |
| 20260504222409 | 26 | 180 | 4.8 | 17.7 | 0.00 | 0.00 | 0.00 | 66 | 1011.5 |
| 20260504221914 | 26 | 131 | 6.4 | 17.7 | 0.00 | 0.00 | 0.00 | 65 | 1011.5 |
| 20260504221409 | 26 | 163 | 6.4 | 17.7 | 0.00 | 0.00 | 0.00 | 64 | 1011.5 |
| 20260504220908 | 26 | 266 | 3.2 | 12.9 | 0.00 | 0.00 | 0.00 | 65 | 1011.5 |
| 20260504220408 | 26 | 195 | 3.2 | 12.9 | 0.00 | 0.00 | 0.00 | 64 | 1011.5 |
| 20260504215905 | 26 | 181 | 4.8 | 16.1 | 0.00 | 0.00 | 0.00 | 65 | 1011.6 |
| 20260504215359 | 26 | 229 | 6.4 | 16.1 | 0.00 | 0.00 | 0.00 | 65 | 1011.5 |
| 20260504214854 | 26 | 157 | 4.8 | 14.5 | 0.00 | 0.00 | 0.00 | 66 | 1011.6 |
| 20260504214624 | 26 | 179 | 4.8 | 14.5 | 0.00 | 0.00 | 0.00 | 66 | 1011.6 |
| 20260504213852 | 26 | 121 | 3.2 | 12.9 | 0.00 | 0.00 | 0.00 | 66 | 1011.7 |
| 20260504213350 | 26 | 175 | 3.2 | 16.1 | 0.00 | 0.00 | 0.00 | 67 | 1011.8 |
| 20260504212851 | 26 | 128 | 6.4 | 19.3 | 0.00 | 0.00 | 0.00 | 67 | 1011.8 |
| 20260504212351 | 26 | 169 | 8.0 | 19.3 | 0.00 | 0.00 | 0.00 | 67 | 1011.9 |
| 20260504211849 | 26 | 136 | 6.4 | 17.7 | 0.00 | 0.00 | 0.00 | 67 | 1012.0 |
| 20260504211349 | 25 | 155 | 4.8 | 19.3 | 0.00 | 0.00 | 0.00 | 67 | 1012.1 |
| 20260504210849 | 25 | 190 | 4.8 | 19.3 | 0.00 | 0.00 | 0.00 | 67 | 1012.4 |
| 20260504210349 | 26 | 198 | 4.8 | 12.9 | 0.00 | 0.00 | 0.00 | 67 | 1012.4 |
| 20260504205848 | 26 | 254 | 4.8 | 16.1 | 0.00 | 0.00 | 0.00 | 67 | 1012.4 |
| 20260504205346 | 25 | 172 | 4.8 | 20.9 | 0.00 | 0.00 | 0.00 | 67 | 1012.7 |
| 20260504204846 | 25 | 248 | 6.4 | 20.9 | 0.00 | 0.00 | 0.00 | 67 | 1012.8 |
| 20260504204346 | 25 | 232 | 4.8 | 17.7 | 0.00 | 0.00 | 0.00 | 67 | 1012.7 |
| 20260504203847 | 26 | 235 | 4.8 | 12.9 | 0.00 | 0.00 | 0.00 | 67 | 1012.8 |
| 20260504203349 | 26 | 209 | 4.8 | 11.3 | 0.00 | 0.00 | 0.00 | 67 | 1012.9 |
| 20260504202845 | 26 | 252 | 4.8 | 12.9 | 0.00 | 0.00 | 0.00 | 67 | 1013.0 |
| 20260504202345 | 26 | 269 | 4.8 | 16.1 | 0.00 | 0.00 | 0.00 | 67 | 1013.1 |
| 20260504201844 | 26 | 197 | 4.8 | 16.1 | 0.00 | 0.00 | 0.00 | 66 | 1013.1 |
| 20260504201338 | 26 | 204 | 4.8 | 14.5 | 0.00 | 0.00 | 0.00 | 67 | 1013.2 |
| 20260504200832 | 25 | 250 | 3.2 | 11.3 | 0.00 | 0.00 | 0.00 | 67 | 1013.2 |
| 20260504200325 | 25 | 190 | 3.2 | 11.3 | 0.00 | 0.00 | 0.00 | 68 | 1013.3 |
| 20260504195819 | 25 | 190 | 3.2 | 14.5 | 0.00 | 0.00 | 0.00 | 68 | 1013.5 |
| 20260504195314 | 25 | 205 | 3.2 | 14.5 | 0.00 | 0.00 | 0.00 | 68 | 1013.6 |
| 20260504195038 | 25 | 234 | 3.2 | 14.5 | 0.00 | 0.00 | 0.00 | 68 | 1013.6 |
| 20260504194302 | 25 | 163 | 4.8 | 14.5 | 0.00 | 0.00 | 0.00 | 68 | 1013.5 |
| 20260504194026 | 25 | 213 | 4.8 | 14.5 | 0.00 | 0.00 | 0.00 | 66 | 1013.7 |
| 20260504193520 | 25 | 171 | 4.8 | 12.9 | 0.00 | 0.00 | 0.00 | 66 | 1013.7 |
| 20260504192744 | 25 | 169 | 4.8 | 14.5 | 0.00 | 0.00 | 0.00 | 68 | 1013.7 |
| 20260504192238 | 25 | 236 | 4.8 | 14.5 | 0.00 | 0.00 | 0.00 | 67 | 1013.7 |
| 20260504191732 | 25 | 202 | 4.8 | 14.5 | 0.00 | 0.00 | 0.00 | 66 | 1013.8 |
| 20260504191226 | 26 | 219 | 3.2 | 16.1 | 0.00 | 0.00 | 0.00 | 65 | 1013.9 |
| 20260504190214 | 26 | 296 | 3.2 | 12.9 | 0.00 | 0.00 | 0.00 | 67 | 1013.9 |
| 20260504185708 | 25 | 219 | 4.8 | 12.9 | 0.00 | 0.00 | 0.00 | 68 | 1014.1 |
| 20260504185201 | 25 | 205 | 4.8 | 12.9 | 0.00 | 0.00 | 0.00 | 68 | 1014.1 |
| 20260504184422 | 25 | 225 | 4.8 | 12.9 | 0.00 | 0.00 | 0.00 | 68 | 1014.1 |
| 20260504183916 | 25 | 227 | 4.8 | 17.7 | 0.00 | 0.00 | 0.00 | 68 | 1014.2 |
| 20260504183410 | 25 | 160 | 6.4 | 17.7 | 0.00 | 0.00 | 0.00 | 69 | 1014.3 |
| 20260504182632 | 25 | 207 | 4.8 | 14.5 | 0.00 | 0.00 | 0.00 | 67 | 1014.6 |
| 20260504182126 | 25 | 207 | 4.8 | 14.5 | 0.00 | 0.00 | 0.00 | 68 | 1014.5 |
| 20260504181619 | 25 | 148 | 4.8 | 14.5 | 0.00 | 0.00 | 0.00 | 68 | 1014.5 |
| 20260504181114 | 25 | 235 | 3.2 | 14.5 | 0.00 | 0.00 | 0.00 | 68 | 1014.6 |
| 20260504180608 | 25 | 240 | 3.2 | 14.5 | 0.00 | 0.00 | 0.00 | 69 | 1014.7 |
| 20260504175556 | 25 | 255 | 4.8 | 14.5 | 0.00 | 0.00 | 0.00 | 68 | 1014.8 |
| 20260504175049 | 25 | 223 | 4.8 | 25.7 | 0.00 | 0.00 | 0.00 | 69 | 1014.8 |
| 20260504174544 | 25 | 173 | 4.8 | 25.7 | 0.00 | 0.00 | 0.00 | 69 | 1014.9 |
| 20260504174038 | 25 | 207 | 4.8 | 14.5 | 0.00 | 0.00 | 0.00 | 68 | 1014.9 |
| 20260504173532 | 25 | 210 | 4.8 | 17.7 | 0.00 | 0.00 | 0.00 | 69 | 1015.0 |
| 20260504173026 | 24 | 215 | 4.8 | 17.7 | 0.00 | 0.00 | 0.00 | 70 | 1015.0 |
| 20260504172753 | 24 | 215 | 4.8 | 17.7 | 0.00 | 0.00 | 0.00 | 71 | 1015.0 |
| 20260504172022 | 24 | 175 | 4.8 | 17.7 | 0.00 | 0.00 | 0.00 | 70 | 1015.0 |
| 20260504171522 | 23 | 248 | 4.8 | 14.5 | 0.00 | 0.00 | 0.00 | 70 | 1015.3 |
| 20260504171022 | 23 | 196 | 3.2 | 12.9 | 0.00 | 0.00 | 0.00 | 71 | 1015.2 |
| 20260504170522 | 23 | 219 | 3.2 | 14.5 | 0.00 | 0.00 | 0.00 | 73 | 1015.3 |
| 20260504160243 | 22 | 199 | 4.8 | 14.5 | 0.00 | 0.00 | 0.00 | 75 | 1015.7 |
| 20260504151009 | 20 | 321 | 3.2 | 9.7 | 0.00 | 0.00 | 0.00 | 82 | 1016.3 |
| 20260504150509 | 19 | 204 | 3.2 | 14.5 | 0.00 | 0.00 | 0.00 | 82 | 1016.2 |
| 20260504141219 | 18 | 177 | 1.6 | 11.3 | 0.00 | 0.00 | 0.00 | 83 | 1016.2 |
| 20260504140443 | 18 | 203 | 1.6 | 8.0 | 0.00 | 0.00 | 0.00 | 83 | 1016.1 |
| 20260504130602 | 17 | 180 | 1.6 | 4.8 | 0.00 | 0.00 | 0.00 | 83 | 1016.1 |
| 20260504120218 | 16 | 178 | 0.0 | 0.0 | 0.00 | 0.00 | 0.00 | 85 | 1015.8 |
| 20260504110613 | 16 | 178 | 0.0 | 4.8 | 0.00 | 0.00 | 0.00 | 82 | 1015.5 |
| 20260504110107 | 16 | 178 | 0.0 | 4.8 | 0.00 | 0.00 | 0.00 | 82 | 1015.6 |
| 20260504100500 | 16 | 178 | 1.6 | 6.4 | 0.00 | 0.00 | 0.00 | 81 | 1016.1 |
| 20260504081943 | 17 | 211 | 0.0 | 4.8 | 0.00 | 0.00 | 0.00 | 78 | 1016.6 |
| 20260504081444 | 17 | 211 | 0.0 | 4.8 | 0.00 | 0.00 | 0.00 | 78 | 1016.6 |
| 20260504080944 | 17 | 211 | 1.6 | 11.3 | 0.00 | 0.00 | 0.00 | 78 | 1016.6 |
| 20260504080441 | 17 | 211 | 1.6 | 11.3 | 0.00 | 0.00 | 0.00 | 78 | 1016.6 |